sat.trackr.live / text

‹ back to catalog

SJ 16-02

NORAD 41634 · 2016-043A

PAYLOAD ACTIVE UNKNOWN

§ Identity

Operator
Country
PRC
Launch date
2016-06-29
Launch site
JSC
Launch vehicle
Mass (kg)
RCS (m²)
9.77

External: N2YO · Heavens-Above · Gunter

§ Orbital elements

Epoch: 2026-05-25T02:25:08.090112Z

Period
96.42 min
Inclination
75.0032°
Eccentricity
0.0006922
Mean motion
14.93506918 rev/d
Perigee alt
582.2 km
Apogee alt
591.8 km
Semi-major
6,965.1 km
B*
7.2169e-5
RAAN
322.6763°
Arg perigee
91.5210°
Mean anomaly
268.6772°
Rev number
53,769

§ Raw data

SJ 16-021 41634U 16043A   26145.10078808  .00000731  00000+0  72169-4 0  99912 41634  75.0032 322.6763 0006922  91.5210 268.6772 14.93506918537697

JSON: /api/v1/satellites/41634 · /tle

For live sub-satellite position, see the globe view (requires WebGL).

§ Visibility from observer

Set your observer location to see the next 7 days of passes ≥ 10°. The values pass through the URL so the page stays shareable.

No JS? Fill the form by hand. The geolocation button needs JavaScript.